Showing default

BLUEBON, 62688

Orbit data source: Space-Track

BLUEBON, 62688 is a Polish payload satellite in SSO that was launched on Tue, 14 Jan 2025 UTC via an FALCON 9 launch vehicle from the Air Force Western Test Range (AFWTR). Payload-class satellites include a variety of spacecraft equipped with specific instruments for various scientific and technological missions. These include communications satellites like Starlink; space stations such as the ISS; scientific satellites like the Hubble; Earth observation satellites from companies like Planet Labs, Umbra, and HawkEye 360; GPS; miniature CubeSats for education and research; and military/defense satellites.

Loading next visibility...
Identifier
62688, 2025-009CH
Orbit
SSO
Country
Flag of PLPL / POL
Related business
Manufacturer
SatRevolution
Mission
Operational Commercial Imaging
Bus & Motor
CUBESAT 6UXL, Unknown motor
Mass
~15 kg wet, ~15 kg dry
Launch date (UTC)
2025-01-14 (1 year ago)
Launch vehicle
FALCON 9
Launch site
Air Force Western Test Range (AFWTR)
Object type
Payload
Rocket body
Debris
Shape & HBR
Box, 0.3 m
Radar Cross Section
0.045 m², Medium (>0.1 m² and < 1m²)

Expand to show TLE details & history
Last TLE update: 6 hours ago

TLE from 6 hours ago
0 BLUEBON
1 62688U 25009CH  26126.53355255  .00007753  00000-0  26876-3 0  9990
2 62688  97.3981 209.7703 0003097 113.2096 246.9471 15.30096442 72600
Epoch: 2026-05-06T12:48Z
TLE epoch observation values (Epoch: 2026-05-06T12:48:18.940Z)
Latitude
-0.00001°
Longitude
153.29871°
Altitude
479.46 km
Speed
7.625 km/s
True Right ascension
13h 59m 04s
True Declination
0° 00' 00"
Sunlit
Object was in full shadow at epoch
Visualization orbit readout
Latitude
Unknown
Longitude
Unknown
Altitude
Unknown
Speed
Unknown
Apparent Right ascension
Unknown
Apparent Declination
Unknown
Sunlit
N/A
Visualization observer readout
Local Sidereal Time
03:08:59
Azimuth
Unknown
Elevation
Unknown
Doppler factor
Unknown
Orbital elements
Apogee altitude
474.598 km
Perigee altitude
470.355 km
Semi-major axis
6,850.613 km
Eccentricity
0.00031
Inclination
97.3981°
RAAN
209.7703°
Arg. of periapsis
113.2096°
True anomaly
246.91445°
Mean anomaly
246.9471°
Eccentric anomaly
246.93077°
Mean motion
3.8278 °/min
Orbital period
94.05 mins
BSTAR
0.00026876
Loading maneuver chart data...
Computing Atmospheric mass density...
Loading historical data...
Loading historical data...
Loading historical data...
Loading historical data...
Loading historical data...
Loading historical data...
Loading historical data...

Documentation

Showing up to 5 results
|